shijiazhuang , China , ASIA

  • Monday
    July 24

      Shower

      75 °F

      No wind

       

  • Tuesday
    July 25

    Cloudy  Cloudy

    86 °F  73 °F

    No wind  No wind

        

  • Wednesday
    July 26

    Light rain  Moderate rain

    79 °F  70 °F

    No wind  North

        

  • Thursday
    July 27

    Moderate rain  Thundershower

    77 °F  70 °F

    North  North

        

  • Friday
    July 28

    Shower  Shower

    77 °F  72 °F

    North  North

        

  • Saturday
    July 29

    Shower  Overcast

    79 °F  72 °F

    North  North

        

  • Sunday
    July 30

    Cloudy  Cloudy

    86 °F  73 °F

    North  North

        

Date   Weather Temperature Humidity Total_rain Visibility Wind
23:00 Cloudy 82°F 74.3% 0mm 999.9km Northeast  1.3m/s
02:00 Shower 77°F 80.2% 0.2mm 999.9km Northeast  1.9m/s
05:00 Shower 76°F 84.2% 0.5mm 999.9km Northeast  1.4m/s
08:00 Shower 77°F 77.3% 1.2mm 999.9km Northeast  2.2m/s
11:00 Cloudy 81°F 72% 0mm 999.9km Northeast  3.6m/s
14:00 Cloudy 85°F 69.6% 0mm 999.9km Northeast  4.0m/s
17:00 Cloudy 86°F 69.5% 0mm 999.9km Northeast  3.8m/s
20:00 Cloudy 83°F 62.9% 0mm 999.9km Northeast  2.5m/s
23:00 Cloudy 78°F 80.7% 0mm 999.9km Northeast  1.8m/s
02:00 Cloudy 77°F 81.2% 0mm 999.9km Northeast  2.2m/s
05:00 Cloudy 76°F 83.7% 0mm 999.9km Northeast  1.5m/s
08:00 Cloudy 75°F 93.8% 0mm 999.9km Northeast  2.4m/s
11:00 Light rain 74°F 98% 1.7mm 999.9km Northeast  3.5m/s
14:00 Light rain 74°F 96.9% 2.9mm 999.9km Northeast  3.3m/s
17:00 Light rain 74°F 96.6% 0.5mm 999.9km Northeast  3.8m/s
20:00 Light rain 74°F 78.5% 2mm 999.9km Northeast  2.6m/s
23:00 Light rain 70°F 98% 2.3mm 999.9km Northeast  1.8m/s
02:00 Moderate rain 70°F 97% 6.3mm 999.9km Northwest  0.9m/s
05:00 Light rain 70°F 97% 2mm 999.9km Northwest  0.9m/s
08:00 Heavy rain 71°F 96.9% 13.4mm 999.9km Northwest  0.9m/s
11:00 Moderate rain 72°F 96.5% 5mm 999.9km Southwest  1.1m/s
14:00 Moderate rain 76°F 86.4% 5mm 999.9km Southeast  1.5m/s
17:00 Overcast 77°F 85.7% 0mm 999.9km Southeast  1.8m/s
20:00 Overcast 75°F 80.2% 0mm 999.9km Southeast  0.7m/s
23:00 Thundershower 77°F 96.1% 2.3mm 999.9km Northwest  0.1m/s
02:00 Thundershower 74°F 96.5% 2.3mm 999.9km Northwest  0.8m/s
05:00 Thundershower 74°F 93.8% 2.3mm 999.9km Southwest  0.4m/s
08:00 Thundershower 73°F 96% 2.3mm 999.9km Northwest  0.7m/s
11:00 Shower 70°F 97.1% 0.7mm 999.9km Northeast  0.1m/s
14:00 Shower 72°F 97.7% 2.2mm 999.9km Northwest  2.2m/s
17:00 Shower 72°F 98.3% 0.7mm 999.9km Northwest  2.1m/s
20:00 Shower 72°F 98.2% 0.7mm 999.9km Northwest  1.8m/s
23:00 Shower 78°F 97.4% 0.2mm 999.9km Northwest  1.7m/s
02:00 Shower 77°F 99% 0.3mm 999.9km Northwest  1.8m/s
05:00 Overcast 75°F 96.6% 0mm 999.9km Northwest  1.9m/s
08:00 Shower 73°F 96.7% 0.3mm 999.9km Northwest  1.9m/s
11:00 Shower 78°F 96.3% 1.7mm 999.9km Northwest  2.7m/s
14:00 Shower 74°F 95.9% 3.3mm 999.9km Northwest  2.8m/s
17:00 Shower 73°F 95% 1mm 999.9km Northwest  2.1m/s
20:00 Shower 72°F 91.7% 1mm 999.9km Northwest  1.6m/s
23:00 Overcast 72°F 84.7% 0mm 999.9km Northwest  1.6m/s
02:00 Overcast 72°F 89.2% 0mm 999.9km Northwest  1.5m/s
05:00 Overcast 74°F 84.3% 0mm 999.9km Northwest  1.4m/s
08:00 Overcast 76°F 84.2% 0mm 999.9km Northwest  1.1m/s
11:00 Cloudy 86°F 79.6% 0mm 999.9km Northeast  1.9m/s
14:00 Cloudy 85°F 79.3% 0mm 999.9km Southeast  2.9m/s
17:00 Cloudy 84°F 79% 0mm 999.9km Southeast  2.4m/s
20:00 Cloudy 84°F 75% 0mm 999.9km Southeast  0.8m/s
23:00 Cloudy 76°F 89.1% 0mm 999.9km Southwest  1.1m/s
02:00 Cloudy 74°F 94.3% 0mm 999.9km Northwest  1.3m/s
05:00 Cloudy 74°F 94.8% 0mm 999.9km Northwest  0.9m/s